Location: Burjasot
(39.5167°N, 0.4167°W)
Time: 21:32:59
(UTC+02:00)

ISS - Visible Passes

Search period start: 17 May 2025 00:00
Search period end: 27 May 2025 00:00
Orbit: 416 x 419 km, 51.6° (Epoch: 17 May)

Date Brightness Start Highest point End Pass type
(mag) Time Alt. Az. Time Alt. Az. Time Alt. Az.
17 May -0.8 00:40:51 10° NNW 00:42:31 16° N 00:42:31 16° N visible
17 May -0.6 22:15:54 10° NNW 22:16:57 11° N 22:18:00 10° NNE visible
17 May -0.9 23:53:06 10° NNW 23:54:53 14° NNE 23:56:06 12° NE visible
18 May -0.8 23:05:20 10° NNW 23:06:36 12° N 23:07:53 10° NNE visible
19 May -1.0 00:41:13 10° NW 00:42:36 20° NNW 00:42:36 20° NNW visible
19 May -0.7 22:17:27 10° N 22:18:18 11° N 22:19:08 10° NNE visible
19 May -1.6 23:53:24 10° NNW 23:56:04 21° NNE 23:56:12 21° NNE visible
20 May -1.2 23:05:35 10° NNW 23:07:50 16° NNE 23:09:47 11° ENE visible
21 May -1.0 00:41:42 10° NW 00:42:42 18° NW 00:42:42 18° NW visible
21 May -1.0 22:17:46 10° NNW 22:19:31 13° NNE 22:21:16 10° NE visible
21 May -2.4 23:53:43 10° NW 23:56:17 38° N 23:56:17 38° N visible
22 May -2.2 23:05:48 10° NW 23:08:47 29° NNE 23:09:54 23° ENE visible
23 May -0.7 00:42:30 10° WNW 00:42:48 12° WNW 00:42:48 12° WNW visible
23 May -1.7 22:17:54 10° NNW 22:20:32 21° NNE 22:23:10 10° ENE visible
23 May -2.4 23:54:14 10° WNW 23:56:26 36° WNW 23:56:26 36° WNW visible
24 May -3.8 23:06:06 10° NW 23:09:28 73° NE 23:10:05 54° ESE visible
25 May -2.9 22:18:03 10° NW 22:21:17 43° NNE 22:23:45 15° E visible
25 May -1.4 23:55:18 10° W 23:56:40 17° WSW 23:56:40 17° WSW visible
26 May -2.8 23:06:43 10° WNW 23:09:49 35° SW 23:10:22 33° SSW visible
